Weather History for Fort Lauderdale, FL

Change the Weather History Date:

Monday, December 19, 2011

  Actual Average Record
Temperature  
Mean Temperature 72 °F -  
Max Temperature 75 °F 77 °F 88 °F (1989)
Min Temperature 68 °F 58 °F 33 °F (1950)
Cooling Degree Days 6    
Growing Degree Days 22 (Base 50)    
Moisture  
Dew Point 55 °F    
Average Humidity 55    
Maximum Humidity 60    
Minimum Humidity 47    
Precipitation  
Precipitation 0.00 in - - ()
Sea Level Pressure  
Sea Level Pressure 30.22 in    
Wind  
Wind Speed 15 mph (East)    
Max Wind Speed 20 mph    
Max Gust Speed 26 mph    
Visibility 10 miles    
Events      
Averages and records for this station are not official NWS values.
T = Trace of Precipitation, MM = Missing Value Source: NWS Daily Summary

Daily Weather History Graph

Daily Weather History Graph

Search for Another Location

Airport:

Trip Planner

Search our weather history database for the weather conditions in past years. The results will help you decide how hot, cold, wet, or windy it might be!

Date:

Astronomy

Dec. 19, 2011 Rise Set
Actual Time 7:02 AM EST 5:32 PM EST
Civil Twilight 6:37 AM EST 5:58 PM EST
Nautical Twilight 6:08 AM EST 6:26 PM EST
Astronomical Twilight 5:40 AM EST 6:55 PM EST
Moon 1:32 AM EST (12/19) 1:12 PM EST (12/19)
Length of Visible Light 11h 20m
Length of Day
10h 30m
Waning Crescent, 31% of the Moon is Illuminated
Dec 19
Waning Crescent
Dec 24
New
Jan 1
First Quarter
Jan 9
Full
Jan 16
Last Quarter

Hourly Weather History & Observations

Time (EST) Temp. Dew Point Humidity Pressure Visibility Wind Dir Wind Speed Gust Speed Precip Events Conditions
12:53 AM 71.1 °F 54.0 °F 55% 30.22 in 10.0 mi ENE 12.7 mph - N/A   Scattered Clouds
1:53 AM 70.0 °F 54.0 °F 57% 30.21 in 10.0 mi East 13.8 mph - N/A   Scattered Clouds
2:53 AM 70.0 °F 53.1 °F 55% 30.20 in 10.0 mi ENE 10.4 mph - N/A   Scattered Clouds
4:53 AM 69.1 °F 54.0 °F 58% 30.18 in 10.0 mi East 16.1 mph - N/A   Partly Cloudy
5:53 AM 69.1 °F 53.1 °F 57% 30.19 in 10.0 mi ENE 12.7 mph - N/A   Scattered Clouds
6:53 AM 68.0 °F 53.1 °F 59% 30.21 in 10.0 mi East 13.8 mph - N/A   Scattered Clouds
7:53 AM 69.1 °F 54.0 °F 58% 30.23 in 10.0 mi ENE 15.0 mph - N/A   Scattered Clouds
8:53 AM 71.1 °F 55.0 °F 57% 30.25 in 10.0 mi ENE 18.4 mph 26.5 mph N/A   Scattered Clouds
10:53 AM 75.0 °F 55.0 °F 50% 30.27 in 10.0 mi East 18.4 mph 25.3 mph N/A   Scattered Clouds
11:53 AM 75.0 °F 55.0 °F 50% 30.25 in 10.0 mi East 19.6 mph - N/A   Scattered Clouds
12:53 PM 75.2 °F 53.6 °F 47% 30.22 in 10.0 mi ESE 16.1 mph 23.0 mph N/A   Scattered Clouds
1:53 PM 75.2 °F 55.4 °F 50% 30.19 in 10.0 mi ESE 19.6 mph 23.0 mph N/A   Scattered Clouds
2:53 PM 73.9 °F 55.0 °F 52% 30.19 in 10.0 mi East 15.0 mph - N/A   Scattered Clouds
4:53 PM 73.0 °F 55.0 °F 53% 30.20 in 10.0 mi East 16.1 mph - N/A   Scattered Clouds
5:53 PM 72.0 °F 54.0 °F 53% 30.20 in 10.0 mi East 13.8 mph - N/A   Scattered Clouds
6:53 PM 72.0 °F 54.0 °F 53% 30.21 in 10.0 mi East 13.8 mph - N/A   Scattered Clouds
7:53 PM 71.1 °F 54.0 °F 55% 30.22 in 10.0 mi East 12.7 mph - N/A   Mostly Cloudy
8:53 PM 72.0 °F 55.0 °F 55% 30.23 in 10.0 mi East 16.1 mph 24.2 mph N/A   Mostly Cloudy
9:53 PM 71.1 °F 55.9 °F 59% 30.23 in 10.0 mi East 16.1 mph - N/A   Partly Cloudy
10:53 PM 71.6 °F 57.2 °F 60% 30.22 in 10.0 mi East 16.1 mph - N/A   Mostly Cloudy
11:53 PM 72.0 °F 57.0 °F 59% 30.21 in 10.0 mi ESE 17.3 mph 23.0 mph N/A   Scattered Clouds